Regional Weather Roundup
Issued by NWS Green Bay, WI

Home | Current Version | Previous Version | Text Only | Print | Product List | Glossary On
Versions: 1 2 3 4 5 6 7 8 9 10 11 12 13 14 15 16 17 18 19 20 21 22 23 24 25 26 27 28 29 30 31 32 33 34 35 36 37 38 39 40 41 42 43 44 45 46 47 48 49 50
000
ASUS43 KGRB 020811
RWRGRB

NORTH-CENTRAL AND NORTHEAST WISCONSIN REGIONAL WEATHER ROUNDUP
NATIONAL WEATHER SERVICE GREEN BAY WI
300 AM CDT SUN AUG 02 2015

WIZ005-009-010>012-018-019-020900-
NORTH CENTRAL WISCONSIN

CITY           SKY/WX    TMP DP  RH WIND       PRES   REMARKS
IRONWOOD       CLEAR     68  61  77 SW10      29.66F
MANITOWISH WTR CLEAR     59  59 100 S3        29.72F
ARBOR VITAE    CLEAR     62  58  87 S3        29.74S
EAGLE RIVER    PTCLDY    60  54  80 CALM      29.74S
LAND O LAKES   CLEAR     53  52  98 CALM      29.74F
RHINELANDER    PTCLDY    67  59  75 S9        29.76F
PHILLIPS       CLEAR     63  61  93 S3        29.73F
ANTIGO         HVY RAIN  63  61  93 S10       29.78F
TOMAHAWK       MOCLDY    64  58  82 CALM      29.76F
MERRILL        NOT AVBL
$$

WIZ013-073-020900-
NORTHEAST WISCONSIN

CITY           SKY/WX    TMP DP  RH WIND       PRES   REMARKS
IRON MOUNTAIN  PTCLDY    53  51  93 CALM      29.72F
MARINETTE      PTCLDY    64  52  63 SW7       29.73F
OCONTO         MOCLDY    62  57  84 CALM      29.75F
$$

WIZ017-030-035>037-045-020900-
CENTRAL WISCONSIN

CITY           SKY/WX    TMP DP  RH WIND       PRES   REMARKS
MEDFORD        MOCLDY    67  64  91 S10       29.76F
WAUSAU         CLOUDY    66  63  90 SE3       29.76F
MOSINEE        CLOUDY    64  63  94 CALM      29.79S
MARSHFIELD     LGT RAIN  68  62  81 SW8       29.77F
WISC RAPIDS    CLOUDY    69  63  81 SW6       29.80F
STEVENS POINT  CLOUDY    67  61  83 SW7       29.78F
WAUPACA        CLOUDY    66  61  85 CALM      29.78F
SHAWANO        CLOUDY    67  58  72 CALM      29.77S THUNDER
CLINTONVILLE   CLOUDY    68  59  73 SW5       29.77F
$$

WIZ038-039-048-051-020900-
FOX VALLEY

CITY           SKY/WX    TMP DP  RH WIND       PRES   REMARKS
NWS GREEN BAY  CLOUDY    65  60  84 CALM      29.78S
APPLETON       MOCLDY    70  59  68 SW10      29.80S
OSHKOSH        PTCLDY    70  61  73 SW7       29.78F
FOND DU LAC    PTCLDY    69  62  78 SW7       29.80F
$$

WIZ022-050-052-020900-
EAST CENTRAL WISCONSIN

CITY           SKY/WX    TMP DP  RH WIND       PRES   REMARKS
STURGEON BAY   PTCLDY    64  52  63 S5        29.78F
MANITOWOC      PTCLDY    68  59  73 MISG      29.79F
SHEBOYGAN      CLEAR     65  61  87 SW6       29.80F
$$

LMZ563-521-522-541>543-020900-
LAKESHORE

STATION/POSITION TIME  TEMP    WIND        PRES    VSBY  WAVE
                       AIR SEA DIR/SP/G                  HT/PER
                 (UTC) (F)     (DEG/KT/KT) (MB)    (MI)  (FT/S)
SHEBOYGAN LKSHOR 0800   71     240/ 11/ 12 1008.9F
KEWAUNEE LKSHORE 0700   64      30/  2/  2 1008.1F
ALGOMA MARINA    0742          220/  5/  5   N/A
NORTHPORT PIER   0700   66     190/  2/  4 1007.8F
N MID LAKE BUOY  0750   70 69  220/ 16/ 17 1006.6F         2/ 4
S GREEN BAY BUOY 0800   71 69  190/ 12/ 14 1008.9F
SISTER BAY LKSHO 0645   69     190/  6/  8   N/A
CHAMBERS ISLAND  0700   69     190/  4/  8 1007.8F
MENOMINEE LKSHOR 0700   69     210/  9/ 10 1008.6F
$$



USA.gov is the U.S. government's official web portal to all federal, state and local government web resources and services.